EUTELSAT HOTBIRD 13G

Last updated on Wed Jul 02 2025 00:02:48 GMT+0000 (Coordinated Universal Time)

1 54225U 22146A 25181.97058888 .00000088 00000+0 00000+0 0 9997 2 54225 0.0549 237.5657 0002159 305.5208 98.5872 1.00272162 3949
UTC large
Height (km)
Speed (km/s)
/
Latitude / Longitude
Inclination (degrees)
Orbital Period (minutes)
Azimuth
Elevation
Range (km)
Doppler Factor

Next 0 passes for location: London (51.5072 / 0.1276)

Sorry there are no passes over London.